Regional Weather Roundup
Issued by NWS

Home | Current Version | Previous Version | Graphics & Text | Print | Product List | Glossary On
Versions: 1 2 3 4 5 6 7 8 9 10 11 12 13 14 15 16 17 18 19 20 21 22 23 24 25 26 27 28 29 30 31 32 33 34 35 36 37 38 39 40 41 42 43 44 45 46 47 48 49 50
039
ASUS43 KFSD 081102
RWRSD

WEATHER ROUNDUP FOR SOUTH DAKOTA
NATIONAL WEATHER SERVICE SIOUX FALLS SD
500 AM CST MON FEB 08 2016

NOTE: "FAIR" INDICATES FEW OR NO CLOUDS BELOW 12,000 FEET WITH NO
SIGNIFICANT WEATHER AND/OR OBSTRUCTIONS TO VISIBILITY.


SDZ001>005-009-010-012>017-081200-
NORTHWEST AND NORTH CENTRAL SOUTH DAKOTA

CITY           SKY/WX    TMP DP  RH WIND       PRES   REMARKS
BUFFALO          N/A     23  12  62 NW20      30.26S WCI   8
FAITH            N/A     22  14  71 NW16      30.29R WCI   8
MOBRIDGE       CLEAR     27  16  63 NW24G32   30.17R WCI  12
$$

SDZ012>016-024>037-041>051-057-063-072>074-081200-
SOUTHWEST AND SOUTH CENTRAL SOUTH DAKOTA

CITY           SKY/WX    TMP DP  RH WIND       PRES   REMARKS
RAPID CTY ARPT CLEAR     29   9  43 NW29G36   30.31R WCI  14
PIERRE         CLEAR     26  16  65 NW25G31   30.22R WCI  11
CUSTER         CLOUDY    21  -8  27 NW20G33   30.22R WCI   6
ELLSWORTH AFB  CLEAR     28   9  45 NW24G33   30.30R WCI  14
PHILIP         CLEAR     26  16  65 NW17G26   30.31R WCI  13
PINE RIDGE     CLEAR     18  10  71 N6        30.33R WCI  10
WINNER         FAIR      27  16  63 NW25G33   30.19R WCI  12
$$

SDZ004>011-016>023-039-040-081200-
NORTHEAST SOUTH DAKOTA

CITY           SKY/WX    TMP DP  RH WIND       PRES   REMARKS
ABERDEEN       FLURRIES  23  17  78 N18       30.13R WCI   9
WATERTOWN      FLURRIES  17  11  77 N23       30.01R WCI  -1
BROOKINGS      LGT SNOW  18  13  80 N28G36    29.97R WCI  -1
SISSETON         N/A     17  12  80 N31G39    30.05R WCI  -3
$$

SDZ017-020-022-023-036>040-048>070-081200-
SOUTHEAST SOUTH DAKOTA

CITY           SKY/WX    TMP DP  RH WIND       PRES   REMARKS
SIOUX FALLS    LGT SNOW  21  16  81 N24G32    30.01R BLWGSNOWWCI   4
HURON          CLOUDY    25  19  78 N24G32    30.10R WCI   9
MITCHELL       CLOUDY    27  19  72 NW28G39   30.10R WCI  11
YANKTON        CLOUDY    28  18  64 NW24G38   30.06R WCI  14
$$

ABBREVIATIONS USED IN REMARKS
   TC - TEMPERATURE IN CELSIUS
  WCI - WIND CHILL INDEX
   HX - HEAT INDEX
  VSB - VISIBILITY





USA.gov is the U.S. government's official web portal to all federal, state and local government web resources and services.